When you browse on this site, cookies collect data to enhance your experience and personalize the content and advertising you see.
Visit our Privacy Policy to learn more. By continuing to use the site, you agree to this use of cookies and data.
  • In Hungary
  • List of Countries
  • For 7 days
  • Water Temperature
  • Satellite Maps
  • Weather Map
  • News
  • Weather Widgets
  • user-avatar
    Login

    Hourly Weather Magurka

    Today, 23 January, Wednesday

    Time Temperature Precipitation Wind Pressure Humidity
    00:00 -13°C° 0 mm 1 mps 684 mmHg 74%
    01:00 -13°C° 0 mm 1 mps 683 mmHg 73%
    02:00 -13°C° 0 mm 1 mps 683 mmHg 73%
    03:00 -13°C° 0 mm 1 mps 682 mmHg 74%
    04:00 -14°C° 0 mm 1 mps 682 mmHg 74%
    05:00 -16°C° 0 mm 2 mps 682 mmHg 76%
    06:00 -16°C° 0 mm 2 mps 682 mmHg 78%
    07:00 -14°C° 0 mm 1 mps 682 mmHg 80%
    08:00 -14°C° 0 mm 2 mps 682 mmHg 80%
    09:00 -13°C° 0 mm 2 mps 682 mmHg 81%
    10:00 -12°C° 0 mm 3 mps 682 mmHg 82%
    11:00 -10°C° 0 mm 3 mps 682 mmHg 81%
    12:00 -9°C° 0 mm 3 mps 682 mmHg 79%
    13:00 -8°C° 0 mm 3 mps 682 mmHg 78%
    14:00 -8°C° 0 mm 3 mps 682 mmHg 80%
    15:00 -9°C° 0 mm 3 mps 682 mmHg 83%
    16:00 -9°C° 0 mm 3 mps 682 mmHg 85%
    17:00 -10°C° 0 mm 3 mps 682 mmHg 87%
    18:00 -10°C° 0 mm 3 mps 682 mmHg 88%
    19:00 -12°C° 0 mm 3 mps 681 mmHg 90%
    20:00 -10°C° 0 mm 2 mps 682 mmHg 90%
    21:00 -10°C° 0 mm 2 mps 682 mmHg 91%
    22:00 -10°C° 0 mm 2 mps 682 mmHg 91%
    23:00 -10°C° 0 mm 2 mps 682 mmHg 91%

    Tomorrow, 24 January, Thursday

    Time Temperature Precipitation Wind Pressure Humidity
    00:00 -12°C° 0 mm 2 mps 683 mmHg 91%
    01:00 -12°C° 0 mm 2 mps 683 mmHg 91%
    02:00 -12°C° 0 mm 2 mps 683 mmHg 91%
    03:00 -12°C° 0 mm 2 mps 683 mmHg 91%
    04:00 -12°C° 0 mm 2 mps 683 mmHg 91%
    05:00 -13°C° 0 mm 3 mps 683 mmHg 91%
    06:00 -13°C° 0 mm 3 mps 683 mmHg 91%
    07:00 -13°C° 0 mm 3 mps 683 mmHg 90%
    08:00 -12°C° 0 mm 3 mps 684 mmHg 89%
    09:00 -10°C° 0 mm 3 mps 684 mmHg 87%
    10:00 -10°C° 0 mm 3 mps 685 mmHg 85%
    11:00 -9°C° 0 mm 3 mps 684 mmHg 83%
    12:00 -10°C° 0 mm 4 mps 684 mmHg 82%
    13:00 -9°C° 0 mm 4 mps 684 mmHg 81%
    14:00 -9°C° 0 mm 4 mps 684 mmHg 82%
    15:00 -10°C° 0 mm 4 mps 684 mmHg 83%
    16:00 -10°C° 0 mm 4 mps 684 mmHg 84%
    17:00 -10°C° 0 mm 4 mps 684 mmHg 85%
    18:00 -11°C° 0 mm 4 mps 684 mmHg 86%
    19:00 -10°C° 0 mm 3 mps 685 mmHg 88%
    20:00 -10°C° 0 mm 3 mps 685 mmHg 88%
    21:00 -10°C° 0 mm 3 mps 685 mmHg 89%
    22:00 -10°C° 0 mm 3 mps 685 mmHg 90%
    23:00 -10°C° 0 mm 3 mps 685 mmHg 90%

    Day after tomorrow, 25 January, Friday

    Time Temperature Precipitation Wind Pressure Humidity
    00:00 -10°C° 0 mm 3 mps 685 mmHg 90%
    01:00 -10°C° 0 mm 3 mps 685 mmHg 90%
    02:00 -10°C° 0 mm 3 mps 685 mmHg 90%
    03:00 -10°C° 0 mm 3 mps 684 mmHg 91%
    04:00 -12°C° 0 mm 3 mps 684 mmHg 91%
    05:00 -12°C° 0.2 mm 3 mps 684 mmHg 91%
    06:00 -12°C° 0.2 mm 3 mps 685 mmHg 91%
    07:00 -12°C° 0.2 mm 3 mps 685 mmHg 92%
    08:00 -12°C° 0.4 mm 3 mps 685 mmHg 91%
    09:00 -9°C° 0.4 mm 2 mps 685 mmHg 91%
    10:00 -9°C° 0.4 mm 2 mps 686 mmHg 90%
    11:00 -9°C° 0.4 mm 2 mps 686 mmHg 90%
    12:00 -9°C° 0.4 mm 2 mps 686 mmHg 89%
    13:00 -9°C° 0.4 mm 2 mps 686 mmHg 89%
    14:00 -9°C° 0.3 mm 2 mps 686 mmHg 90%
    15:00 -9°C° 0.3 mm 2 mps 686 mmHg 91%
    16:00 -9°C° 0.3 mm 2 mps 687 mmHg 93%
    17:00 -9°C° 0.1 mm 2 mps 687 mmHg 93%
    18:00 -9°C° 0.1 mm 2 mps 687 mmHg 93%
    19:00 -9°C° 0.1 mm 2 mps 688 mmHg 94%
    20:00 -9°C° 0.1 mm 2 mps 688 mmHg 94%
    21:00 -9°C° 0.1 mm 2 mps 688 mmHg 94%
    22:00 -9°C° 0.1 mm 2 mps 689 mmHg 93%
    23:00 -9°C° 0.1 mm 2 mps 689 mmHg 93%

    26 January, Saturday

    Time Temperature Precipitation Wind Pressure Humidity
    00:00 -9°C° 0.1 mm 2 mps 689 mmHg 93%
    01:00 -9°C° 0.1 mm 2 mps 689 mmHg 93%
    02:00 -10°C° 0.1 mm 2 mps 689 mmHg 93%
    03:00 -10°C° 0.1 mm 2 mps 689 mmHg 93%
    04:00 -10°C° 0.1 mm 2 mps 689 mmHg 93%
    05:00 -10°C° 0.1 mm 2 mps 689 mmHg 93%
    06:00 -10°C° 0.1 mm 2 mps 689 mmHg 93%
    07:00 -10°C° 0.1 mm 2 mps 689 mmHg 93%
    08:00 -10°C° 0 mm 2 mps 689 mmHg 91%
    09:00 -9°C° 0 mm 2 mps 689 mmHg 90%
    10:00 -9°C° 0 mm 2 mps 689 mmHg 89%
    11:00 -8°C° 0 mm 2 mps 689 mmHg 87%
    12:00 -7°C° 0 mm 1 mps 689 mmHg 85%
    13:00 -6°C° 0 mm 1 mps 689 mmHg 83%
    14:00 -7°C° 0 mm 1 mps 688 mmHg 85%
    15:00 -8°C° 0 mm 1 mps 688 mmHg 87%
    16:00 -8°C° 0 mm 0 mps 687 mmHg 89%
    17:00 -9°C° 0 mm 1 mps 687 mmHg 88%
    18:00 -9°C° 0 mm 1 mps 687 mmHg 88%
    19:00 -10°C° 0 mm 1 mps 686 mmHg 88%
    20:00 -10°C° 0 mm 1 mps 686 mmHg 84%
    21:00 -12°C° 0 mm 2 mps 686 mmHg 81%
    22:00 -12°C° 0 mm 2 mps 685 mmHg 78%
    23:00 -12°C° 0 mm 2 mps 685 mmHg 76%

    27 January, Sunday

    Time Temperature Precipitation Wind Pressure Humidity
    00:00 -12°C° 0 mm 2 mps 684 mmHg 73%
    01:00 -12°C° 0 mm 2 mps 684 mmHg 71%
    02:00 -12°C° 0 mm 2 mps 683 mmHg 71%
    03:00 -12°C° 0 mm 2 mps 683 mmHg 71%
    04:00 -10°C° 0 mm 2 mps 683 mmHg 71%
    05:00 -10°C° 0 mm 2 mps 682 mmHg 74%
    06:00 -10°C° 0 mm 2 mps 682 mmHg 76%
    07:00 -10°C° 0 mm 2 mps 682 mmHg 79%
    08:00 -8°C° 0 mm 2 mps 682 mmHg 79%
    09:00 -6°C° 0 mm 2 mps 683 mmHg 79%
    10:00 -4°C° 0 mm 2 mps 683 mmHg 79%
    11:00 -3°C° 0 mm 2 mps 683 mmHg 80%
    12:00 -2°C° 0 mm 2 mps 683 mmHg 82%
    13:00 +1°C° 0 mm 1 mps 683 mmHg 83%
    14:00 0°C° 0 mm 1 mps 682 mmHg 85%
    15:00 -1°C° 0 mm 1 mps 682 mmHg 87%
    16:00 -2°C° 0 mm 1 mps 682 mmHg 88%
    17:00 -3°C° 0 mm 1 mps 682 mmHg 89%
    18:00 -4°C° 0 mm 1 mps 682 mmHg 90%
    19:00 -7°C° 0 mm 2 mps 682 mmHg 90%
    20:00 -7°C° 0 mm 2 mps 683 mmHg 91%
    21:00 -7°C° 0 mm 2 mps 683 mmHg 91%
    22:00 -7°C° 0 mm 2 mps 683 mmHg 91%
    23:00 -8°C° 0 mm 2 mps 683 mmHg 91%

    28 January, Monday

    Time Temperature Precipitation Wind Pressure Humidity
    00:00 -8°C° 0 mm 2 mps 683 mmHg 91%
    01:00 -8°C° 0 mm 2 mps 683 mmHg 92%
    02:00 -8°C° 0 mm 2 mps 683 mmHg 91%
    03:00 -8°C° 0 mm 2 mps 683 mmHg 91%
    04:00 -7°C° 0 mm 2 mps 683 mmHg 91%
    05:00 -6°C° 0 mm 1 mps 684 mmHg 91%
    06:00 -6°C° 0 mm 1 mps 684 mmHg 91%
    07:00 -6°C° 0 mm 1 mps 684 mmHg 91%
    08:00 -4°C° 0 mm 1 mps 685 mmHg 89%
    09:00 -3°C° 0 mm 1 mps 685 mmHg 87%
    10:00 -2°C° 0 mm 1 mps 686 mmHg 85%
    11:00 -1°C° 0 mm 1 mps 686 mmHg 86%
    12:00 -1°C° 0 mm 0 mps 686 mmHg 86%
    13:00 -1°C° 0 mm 0 mps 686 mmHg 87%
    14:00 -1°C° 0 mm 0 mps 686 mmHg 88%
    15:00 -2°C° 0 mm 0 mps 686 mmHg 90%
    16:00 -2°C° 0 mm 0 mps 686 mmHg 92%
    17:00 -3°C° 0 mm 0 mps 686 mmHg 92%
    18:00 -3°C° 0 mm 1 mps 686 mmHg 93%
    19:00 -4°C° 0 mm 1 mps 686 mmHg 93%
    20:00 -4°C° 0 mm 1 mps 687 mmHg 92%
    21:00 -4°C° 0 mm 1 mps 687 mmHg 92%
    22:00 -4°C° 0 mm 1 mps 687 mmHg 92%
    23:00 -4°C° 0 mm 1 mps 687 mmHg 91%
    Show more